LUCH (OLYMP) DEB, 67745

Orbit data source: Space-Track

LUCH (OLYMP) DEB, 67745 is space debris in GEO originally from a launch on Sat, 27 Sep 2014 UTC launched from the Tyuratam Missile And Space Complex (TTMTR). Debris objects in space refer to the collection of defunct objects orbiting the Earth. Examples of debris include non-operational satellites, rocket bodies, and fragments generated from explosions, collisions, or faulty payload assembly.

Not visible in the next 10 days
Identifier
67745, 2014-058D
Orbit
GEO
Country
Flag of CISCIS
Related business
Manufacturer
Resehetnev ISS
Mission
Spacecraft
Bus & Motor
Unknown
Mass
Unknown
Launch date (UTC)
2014-09-27 (12 years ago)
Launch vehicle
Unknown
Launch site
Tyuratam Missile And Space Complex (TTMTR)
Object type
Payload
Rocket body
Debris
Shape & HBR
Unknown shape, 1.1 m
Radar Cross Section
RCS unknown

Expand to show TLE details & history
Last TLE update: 21 hours ago

TLE from 21 hours ago
0 LUCH (OLYMP) DEB
1 67745U 14058D   26150.29731330 -.00000084  00000-0  00000-0 0  9992
2 67745   2.0642  84.6175 1690991  13.5259 349.9643  0.98025679  1179
Epoch: 2026-05-30T07:08Z
TLE epoch observation values (Epoch: 2026-05-30T07:08:07.869Z)
Latitude
-0°
Longitude
89.12932°
Altitude
29,323.554 km
Speed
3.608 km/s
True Right ascension
05h 35m 54s
True Declination
0° 00' 00"
Sunlit
Object was in daylight at epoch
Visualization orbit readout
Latitude
Unknown
Longitude
Unknown
Altitude
Unknown
Speed
Unknown
Apparent Right ascension
Unknown
Apparent Declination
Unknown
Sunlit
N/A
Visualization observer readout
Local Sidereal Time
13:36:52
Azimuth
Unknown
Elevation
Unknown
Doppler factor
Unknown
Orbital elements
Apogee altitude
43,668.059 km
Perigee altitude
29,190.644 km
Semi-major axis
42,807.489 km
Eccentricity
0.1691
Inclination
2.0642°
RAAN
84.6175°
Arg. of periapsis
13.5259°
True anomaly
345.71603°
Mean anomaly
349.9643°
Eccentric anomaly
347.93999°
Mean motion
0.24505 °/min
Orbital period
1,469.06 mins
BSTAR
0
Loading maneuver chart data...
Computing Atmospheric mass density...
Loading historical data...
Loading historical data...
Loading historical data...
Loading historical data...
Loading historical data...
Loading historical data...
Loading historical data...
Other satellites on launch #58 in the year 2014 (2014-09-27 UTC)

Documentation

Showing up to 5 results
|